When you browse on this site, cookies collect data to enhance your experience and personalize the content and advertising you see.
Visit our Privacy Policy to learn more. By continuing to use the site, you agree to this use of cookies and data.
  • In Portugal
  • List of Countries
  • For 7 days
  • Water Temperature
  • Weather Map
  • Weather Widgets
  • user-avatar
    Login

    Hourly Weather Herāt

    Today, 18 October, Friday

    Time Temperature Precipitation Wind Pressure Humidity
    00:00 +12°C° 0 mm 2 mps 682 mmHg 39%
    01:00 +10°C° 0 mm 2 mps 682 mmHg 41%
    02:00 +10°C° 0 mm 2 mps 682 mmHg 42%
    03:00 +9°C° 0 mm 2 mps 681 mmHg 44%
    04:00 +9°C° 0 mm 2 mps 681 mmHg 47%
    05:00 +10°C° 0 mm 2 mps 682 mmHg 43%
    06:00 +12°C° 0 mm 2 mps 682 mmHg 39%
    07:00 +13°C° 0 mm 2 mps 683 mmHg 35%
    08:00 +16°C° 0 mm 2 mps 683 mmHg 29%
    09:00 +19°C° 0 mm 2 mps 684 mmHg 23%
    10:00 +23°C° 0 mm 2 mps 684 mmHg 16%
    11:00 +24°C° 0 mm 2 mps 684 mmHg 14%
    12:00 +26°C° 0 mm 3 mps 683 mmHg 12%
    13:00 +27°C° 0 mm 4 mps 683 mmHg 11%
    14:00 +27°C° 0 mm 4 mps 683 mmHg 11%
    15:00 +26°C° 0 mm 5 mps 682 mmHg 12%
    16:00 +24°C° 0 mm 7 mps 682 mmHg 14%
    17:00 +21°C° 0 mm 6 mps 681 mmHg 18%
    18:00 +17°C° 0 mm 5 mps 681 mmHg 22%
    19:00 +14°C° 0 mm 4 mps 681 mmHg 26%
    20:00 +13°C° 0 mm 3 mps 681 mmHg 27%
    21:00 +12°C° 0 mm 3 mps 681 mmHg 29%
    22:00 +12°C° 0 mm 2 mps 680 mmHg 31%
    23:00 +10°C° 0 mm 2 mps 680 mmHg 34%

    Tomorrow, 19 October, Saturday

    Time Temperature Precipitation Wind Pressure Humidity
    00:00 +11°C° 0 mm 1 mps 680 mmHg 38%
    01:00 +10°C° 0 mm 1 mps 680 mmHg 42%
    02:00 +10°C° 0 mm 1 mps 679 mmHg 46%
    03:00 +9°C° 0 mm 1 mps 679 mmHg 50%
    04:00 +8°C° 0 mm 0 mps 679 mmHg 53%
    05:00 +9°C° 0 mm 0 mps 680 mmHg 45%
    06:00 +10°C° 0 mm 0 mps 680 mmHg 36%
    07:00 +11°C° 0 mm 0 mps 681 mmHg 28%
    08:00 +16°C° 0 mm 1 mps 682 mmHg 23%
    09:00 +20°C° 0 mm 1 mps 682 mmHg 18%
    10:00 +23°C° 0 mm 1 mps 683 mmHg 13%
    11:00 +25°C° 0 mm 2 mps 683 mmHg 12%
    12:00 +26°C° 0 mm 3 mps 683 mmHg 11%
    13:00 +28°C° 0 mm 4 mps 682 mmHg 10%
    14:00 +27°C° 0 mm 4 mps 682 mmHg 10%
    15:00 +27°C° 0 mm 4 mps 682 mmHg 10%
    16:00 +27°C° 0 mm 4 mps 682 mmHg 10%
    17:00 +22°C° 0 mm 3 mps 681 mmHg 15%
    18:00 +18°C° 0 mm 2 mps 681 mmHg 19%
    19:00 +14°C° 0 mm 1 mps 680 mmHg 23%
    20:00 +14°C° 0 mm 1 mps 680 mmHg 29%
    21:00 +13°C° 0 mm 1 mps 680 mmHg 34%
    22:00 +12°C° 0 mm 1 mps 680 mmHg 39%
    23:00 +12°C° 0 mm 1 mps 680 mmHg 43%

    Day after tomorrow, 20 October, Sunday

    Time Temperature Precipitation Wind Pressure Humidity
    00:00 +12°C° 0 mm 1 mps 680 mmHg 46%
    01:00 +11°C° 0 mm 1 mps 680 mmHg 50%
    02:00 +11°C° 0 mm 1 mps 680 mmHg 51%
    03:00 +10°C° 0 mm 1 mps 680 mmHg 53%
    04:00 +10°C° 0 mm 1 mps 679 mmHg 55%
    05:00 +11°C° 0 mm 1 mps 680 mmHg 44%
    06:00 +12°C° 0 mm 0 mps 681 mmHg 33%
    07:00 +13°C° 0 mm 0 mps 682 mmHg 22%
    08:00 +18°C° 0 mm 1 mps 682 mmHg 18%
    09:00 +21°C° 0 mm 1 mps 683 mmHg 15%
    10:00 +25°C° 0 mm 1 mps 684 mmHg 11%
    11:00 +26°C° 0 mm 1 mps 683 mmHg 10%
    12:00 +27°C° 0 mm 2 mps 683 mmHg 9%
    13:00 +28°C° 0 mm 3 mps 683 mmHg 8%
    14:00 +27°C° 0 mm 4 mps 683 mmHg 9%
    15:00 +27°C° 0 mm 4 mps 683 mmHg 9%
    16:00 +26°C° 0 mm 5 mps 682 mmHg 10%
    17:00 +23°C° 0 mm 5 mps 682 mmHg 13%
    18:00 +20°C° 0 mm 5 mps 682 mmHg 15%
    19:00 +17°C° 0 mm 4 mps 682 mmHg 18%
    20:00 +15°C° 0 mm 4 mps 682 mmHg 20%
    21:00 +14°C° 0 mm 3 mps 682 mmHg 21%
    22:00 +13°C° 0 mm 3 mps 681 mmHg 22%
    23:00 +14°C° 0 mm 2 mps 681 mmHg 23%

    21 October, Monday

    Time Temperature Precipitation Wind Pressure Humidity
    00:00 +13°C° 0 mm 2 mps 681 mmHg 24%
    01:00 +12°C° 0 mm 2 mps 681 mmHg 26%
    02:00 +12°C° 0 mm 2 mps 681 mmHg 26%
    03:00 +12°C° 0 mm 2 mps 681 mmHg 27%
    04:00 +12°C° 0 mm 2 mps 681 mmHg 28%
    05:00 +13°C° 0 mm 2 mps 681 mmHg 26%
    06:00 +14°C° 0 mm 2 mps 682 mmHg 24%
    07:00 +15°C° 0 mm 2 mps 682 mmHg 22%
    08:00 +17°C° 0 mm 2 mps 683 mmHg 19%
    09:00 +20°C° 0 mm 2 mps 683 mmHg 16%
    10:00 +24°C° 0 mm 2 mps 683 mmHg 13%
    11:00 +25°C° 0 mm 3 mps 683 mmHg 12%
    12:00 +26°C° 0 mm 3 mps 683 mmHg 12%
    13:00 +27°C° 0 mm 4 mps 682 mmHg 12%
    14:00 +27°C° 0 mm 5 mps 682 mmHg 12%
    15:00 +26°C° 0 mm 6 mps 682 mmHg 13%
    16:00 +24°C° 0 mm 8 mps 681 mmHg 13%
    17:00 +23°C° 0 mm 7 mps 681 mmHg 15%
    18:00 +21°C° 0 mm 7 mps 682 mmHg 16%
    19:00 +20°C° 0 mm 7 mps 682 mmHg 18%
    20:00 +19°C° 0 mm 6 mps 682 mmHg 18%
    21:00 +17°C° 0 mm 6 mps 682 mmHg 19%
    22:00 +17°C° 0 mm 5 mps 682 mmHg 19%
    23:00 +17°C° 0 mm 4 mps 682 mmHg 21%

    22 October, Tuesday

    Time Temperature Precipitation Wind Pressure Humidity
    00:00 +15°C° 0 mm 4 mps 681 mmHg 22%
    01:00 +14°C° 0 mm 4 mps 681 mmHg 23%
    02:00 +13°C° 0 mm 4 mps 681 mmHg 23%
    03:00 +13°C° 0 mm 5 mps 681 mmHg 24%
    04:00 +12°C° 0 mm 5 mps 681 mmHg 24%
    05:00 +12°C° 0 mm 5 mps 681 mmHg 23%
    06:00 +13°C° 0 mm 5 mps 682 mmHg 22%
    07:00 +13°C° 0 mm 5 mps 682 mmHg 21%
    08:00 +16°C° 0 mm 5 mps 682 mmHg 19%
    09:00 +19°C° 0 mm 5 mps 683 mmHg 18%
    10:00 +21°C° 0 mm 5 mps 683 mmHg 16%
    11:00 +22°C° 0 mm 6 mps 683 mmHg 15%
    12:00 +23°C° 0 mm 7 mps 683 mmHg 14%
    13:00 +23°C° 0 mm 7 mps 682 mmHg 13%
    14:00 +22°C° 0 mm 8 mps 682 mmHg 14%
    15:00 +21°C° 0 mm 9 mps 682 mmHg 15%
    16:00 +19°C° 0 mm 9 mps 682 mmHg 15%
    17:00 +17°C° 0 mm 9 mps 682 mmHg 18%
    18:00 +15°C° 0 mm 8 mps 682 mmHg 22%
    19:00 +12°C° 0 mm 7 mps 682 mmHg 25%
    20:00 +11°C° 0 mm 6 mps 682 mmHg 28%
    21:00 +11°C° 0 mm 4 mps 682 mmHg 31%
    22:00 +9°C° 0 mm 3 mps 682 mmHg 34%
    23:00 +9°C° 0 mm 3 mps 681 mmHg 35%

    23 October, Wednesday

    Time Temperature Precipitation Wind Pressure Humidity
    00:00 +8°C° 0 mm 3 mps 681 mmHg 37%
    01:00 +8°C° 0 mm 3 mps 681 mmHg 39%
    02:00 +7°C° 0 mm 2 mps 681 mmHg 42%
    03:00 +7°C° 0 mm 2 mps 680 mmHg 45%
    04:00 +6°C° 0 mm 2 mps 680 mmHg 49%
    05:00 +7°C° 0 mm 2 mps 681 mmHg 45%
    06:00 +8°C° 0 mm 3 mps 681 mmHg 41%
    07:00 +8°C° 0 mm 3 mps 682 mmHg 37%
    08:00 +11°C° 0 mm 3 mps 682 mmHg 30%
    09:00 +14°C° 0 mm 3 mps 683 mmHg 24%
    10:00 +18°C° 0 mm 4 mps 683 mmHg 18%
    11:00 +19°C° 0 mm 5 mps 683 mmHg 16%
    12:00 +20°C° 0 mm 6 mps 682 mmHg 15%
    13:00 +21°C° 0 mm 7 mps 682 mmHg 13%
    14:00 +20°C° 0 mm 7 mps 682 mmHg 15%
    15:00 +18°C° 0 mm 8 mps 681 mmHg 16%
    16:00 +17°C° 0 mm 8 mps 681 mmHg 18%
    17:00 +15°C° 0 mm 8 mps 681 mmHg 21%
    18:00 +11°C° 0 mm 7 mps 681 mmHg 25%
    19:00 +9°C° 0 mm 6 mps 681 mmHg 29%
    20:00 +8°C° 0 mm 5 mps 681 mmHg 32%
    21:00 +7°C° 0 mm 4 mps 681 mmHg 34%
    22:00 +5°C° 0 mm 3 mps 681 mmHg 37%
    23:00 +5°C° 0 mm 3 mps 681 mmHg 40%
    Show more